[[{"header":{"parameterUnit":"m.s-1","parameterCategory":2,"la1":30.2991,"la2":30.254,"lo1":-89.0895,"lo2":-89.0444,"dy":0.0017,"dx":0.0017,"nx":28,"ny":28,"refTime":"2025-12-19T09:00:00:Z","depth":"0","parameterNumber":2,"parameterNumberName":"U-component_of_CURRENTS"},"data":[0,0,0,0,0,0,0,0,0,0,0,0,0,0,0,0,0,0,0,0,0,0,0,0,0,0,0,0,0,0,0,0,0,0,0,0,0,0,0,0,0,0,0,0,0,0,0,0,0,0,0,0,0,0,0,0,0,0,0.2143,0.2142,0,0.2103,0.2103,0.2102,0.207,0.207,0.207,0.207,0.2025,0.2024,0.2023,0,0,0,0,0,0,0,0,0,0,0,0,0,0.2203,0.2202,0.2143,0.2142,0.2142,0.2104,0.2103,0.2102,0.207,0.207,0.207,0.207,0.2026,0.2024,0.2023,0,0,0,0,0,0,0,0,0,0,0,0,0,0.2168,0.2201,0.2143,0.2124,0.2123,0.2104,0.2103,0.2102,0.207,0.207,0.207,0.207,0.2026,0.2024,0.2023,0.2012,0,0,0.2017,0.2017,0,0,0,0,0,0,0,0,0.217,0.2166,0.2127,0.2126,0.2124,0.2095,0.2108,0.2073,0.207,0.2086,0.207,0.207,0.205,0.2046,0.2034,0.201,0.2008,0.2017,0.2016,0.2015,0.2015,0,0,0,0,0,0,0,0.2173,0.2167,0.2124,0.2127,0.2125,0.2123,0.2117,0.2101,0.2066,0.2085,0.2084,0.2085,0.2049,0.2036,0.2033,0.2008,0.2017,0.2016,0.2015,0.2014,0.2002,0.2002,0,0,0,0,0,0,0.2183,0.2169,0.2125,0.2123,0.2151,0.2122,0.2116,0.2101,0.2066,0.2062,0.2085,0.2083,0.2039,0.2035,0.2032,0.2038,0.2015,0.2014,0.2013,0.2001,0.2002,0.2003,0,0,0,0,0,0,0.2185,0.2179,0.2127,0.2149,0.2143,0.2121,0.2105,0.2101,0.2091,0.2067,0.2062,0.208,0.2039,0.2034,0.2024,0.2035,0.2013,0.2011,0.2,0.2001,0.2002,0.2037,0,0,0,0,0,0,0.2186,0.2179,0.2174,0.2149,0.2142,0.2117,0.2105,0.21,0.2093,0.209,0.2061,0.2057,0.2039,0.2027,0.2022,0.2032,0.201,0.1999,0.2001,0.2002,0.2035,0.2039,0.2042,0,0,0,0,0,0.2188,0.218,0.2173,0.2168,0.2134,0.2118,0.2113,0.2096,0.2093,0.2087,0.2074,0.2058,0.2033,0.2026,0.202,0.203,0.1998,0.2,0.2002,0.2033,0.2038,0.2042,0,0,0,0,0,0,0.2204,0.2175,0.2168,0.2151,0.2138,0.2114,0.211,0.21,0.2084,0.2085,0.2061,0.2056,0.2055,0.2038,0.2031,0.2032,0.2015,0.2016,0.2041,0.2046,0.205,0.2057,0.2008,0,0,0,0,0,0.2206,0.2188,0.2169,0.2155,0.2152,0.2133,0.2126,0.2115,0.21,0.2092,0.2074,0.2061,0.2056,0.2048,0.2038,0.2031,0.2038,0.2037,0.2041,0.2044,0.2048,0.2078,0.2085,0.2008,0.2008,0.2008,0,0,0.2208,0.2192,0.2181,0.2158,0.2147,0.2137,0.2127,0.2119,0.2113,0.2091,0.2078,0.2074,0.206,0.2057,0.2055,0.2043,0.207,0.2046,0.2049,0.2051,0.2081,0.2088,0.2095,0.2009,0.2009,0.2009,0,0,0.2206,0.2191,0.2177,0.2169,0.2158,0.2146,0.2147,0.2127,0.2122,0.2113,0.2104,0.2108,0.2084,0.2082,0.2078,0.2097,0.2093,0.2095,0.2115,0.2144,0.215,0.2156,0.2176,0.2183,0.2093,0.2093,0.2093,0,0.2214,0.2186,0.2174,0.2165,0.2162,0.2151,0.2145,0.2137,0.2118,0.2125,0.2114,0.2114,0.2098,0.2111,0.2116,0.2106,0.2121,0.2096,0.215,0.2156,0.2161,0.2179,0.2187,0.2095,0.2094,0.2094,0.2094,0,0.2197,0.2183,0.2179,0.2159,0.2158,0.215,0.2146,0.2146,0.2144,0.2142,0.2158,0.2146,0.2149,0.2147,0.2132,0.2166,0.2163,0.2155,0.2138,0.2171,0.2188,0.2195,0.2097,0.2097,0.2096,0.2096,0,0,0.2187,0.217,0.2167,0.2158,0.2154,0.2145,0.2157,0.2161,0.2172,0.2171,0.2189,0.2188,0.2196,0.2193,0.2186,0.2204,0.225,0.2196,0.2196,0.2216,0.2315,0.2263,0.2266,0.2256,0.2258,0.2259,0.2311,0,0.2175,0.2157,0.2155,0.214,0.2132,0.2142,0.2149,0.2161,0.2176,0.2192,0.2209,0.2218,0.2209,0.2214,0.2237,0.2249,0.2271,0.2236,0.2279,0.228,0.2231,0.2274,0.2133,0.2164,0.2319,0.232,0.2321,0,0.215,0.2143,0.2131,0.2127,0.2126,0.2121,0.2143,0.2151,0.2191,0.2211,0.2247,0.2255,0.2288,0.227,0.2326,0.2307,0.2315,0.2322,0.2324,0.2268,0.2242,0.2156,0.2172,0.2083,0.2332,0.2331,0.233,0,0.2128,0.2119,0.2107,0.2104,0.2106,0.2113,0.212,0.2159,0.2181,0.2229,0.2257,0.2298,0.2321,0.2351,0.2368,0.2353,0.2426,0.2406,0.2369,0.2365,0.2249,0.2232,0.2182,0.2446,0.2446,0.2446,0.2446,0,0.2102,0.2088,0.2093,0.2082,0.2078,0.2094,0.2109,0.2134,0.2187,0.2212,0.2264,0.229,0.2345,0.2385,0.2394,0.2411,0.2453,0.2383,0.238,0.2256,0.224,0.2159,0.2138,0.2448,0.2447,0.2447,0.2446,0,0.207,0.2069,0.2055,0.2062,0.2062,0.2063,0.2095,0.2115,0.2172,0.2213,0.223,0.2305,0.2354,0.2402,0.2451,0.2439,0.2365,0.2447,0.2294,0.2271,0.2132,0.2118,0.2002,0.1937,0.2413,0.2412,0.2411,0,0.2048,0.2037,0.2038,0.2033,0.2032,0.204,0.2051,0.2102,0.2128,0.2205,0.2219,0.2291,0.2318,0.239,0.2375,0.2395,0.2324,0.2278,0.2217,0.2113,0.2096,0.2006,0.1953,0.208,0.2077,0.2074,0.2072,0,0.2018,0.202,0.2017,0.2007,0.2007,0.2002,0.2018,0.2033,0.2091,0.2125,0.2165,0.2195,0.2258,0.2212,0.2245,0.2233,0.2122,0.222,0.2151,0.1866,0.1726,0.1664,0.2061,0.2047,0.2049,0.2051,0.2053,0.2054,0.2006,0.1997,0.1995,0.1977,0.1973,0.1945,0.1916,0.1938,0.1949,0.1956,0.2047,0.2039,0.2048,0.2063,0.2047,0.1912,0.1947,0.1825,0.183,0.1758,0.1642,0.1984,0.1942,0.1944,0.1946,0.1947,0.1948,0,0.199,0.1976,0.1961,0.1926,0.1889,0.1897,0.1876,0.1829,0.1793,0.1818,0.1831,0.179,0.1728,0.1727,0.1628,0.1532,0.1443,0.1475,0.131,0.1291,0.1621,0.1553,0.1376,0.1376,0.1376,0.1377,0.1377,0.1377,0.1985,0.1954,0.1932,0.1846,0.1812,0.1719,0.1681,0.1624,0.1605,0.1526,0.1482,0.15,0.1513,0.1411,0.1273,0.1228,0.1103,0.1011,0.1057,0.128,0.1312,0.1343,0.1271,0.1039,0.1038,0.0615,0.0611,0.0609]},{"header":{"parameterUnit":"m.s-1","parameterCategory":2,"la1":30.2991,"la2":30.254,"lo1":-89.0895,"lo2":-89.0444,"dy":0.0017,"dx":0.0017,"nx":28,"ny":28,"refTime":"2025-12-19T09:00:00:Z","depth":"0","parameterNumber":3,"parameterNumberName":"V-component_of_CURRENTS"},"data":[0,0,0,0,0,0,0,0,0,0,0,0,0,0,0,0,0,0,0,0,0,0,0,0,0,0,0,0,0,0,0,0,0,0,0,0,0,0,0,0,0,0,0,0,0,0,0,0,0,0,0,0,0,0,0,0,0,0,0.0168,0.0168,0,0.0165,0.0165,0.0165,0.0153,0.0153,0.0153,0.0153,0.013,0.013,0.0129,0,0,0,0,0,0,0,0,0,0,0,0,0,0.0139,0.014,0.0168,0.0168,0.0168,0.0165,0.0165,0.0165,0.0154,0.0153,0.0153,0.0153,0.013,0.013,0.0129,0,0,0,0,0,0,0,0,0,0,0,0,0,0.0144,0.014,0.0168,0.0163,0.0163,0.0165,0.0165,0.0165,0.0154,0.0153,0.0153,0.0153,0.0131,0.013,0.0129,0.0128,0,0,0.0127,0.0126,0,0,0,0,0,0,0,0,0.0144,0.0145,0.0164,0.0164,0.0163,0.0161,0.0147,0.0152,0.0154,0.0155,0.0153,0.0153,0.014,0.0138,0.0136,0.0127,0.0126,0.0127,0.0126,0.0126,0.0126,0,0,0,0,0,0,0,0.0143,0.0145,0.0165,0.0164,0.0164,0.0153,0.0154,0.0148,0.0147,0.0155,0.0155,0.0157,0.0139,0.0137,0.0135,0.0126,0.0127,0.0126,0.0126,0.0125,0.012,0.012,0,0,0,0,0,0,0.0149,0.0145,0.0165,0.0165,0.0155,0.0154,0.0155,0.0161,0.0147,0.0146,0.0157,0.0157,0.0138,0.0136,0.0135,0.0147,0.0126,0.0125,0.0125,0.0119,0.012,0.012,0,0,0,0,0,0,0.0148,0.0151,0.0165,0.0156,0.0157,0.0155,0.0162,0.0161,0.0161,0.015,0.0147,0.0159,0.0138,0.0136,0.0133,0.0146,0.0125,0.0124,0.0119,0.0119,0.012,0.0163,0,0,0,0,0,0,0.0147,0.0151,0.0155,0.0156,0.0158,0.0173,0.0162,0.0161,0.0163,0.0162,0.015,0.0148,0.0138,0.0134,0.0132,0.0144,0.0124,0.0119,0.0119,0.012,0.0162,0.0165,0.0169,0,0,0,0,0,0.0146,0.0156,0.0155,0.0157,0.0164,0.0173,0.0173,0.017,0.0164,0.0168,0.0158,0.0148,0.0136,0.0134,0.0131,0.0144,0.0118,0.0119,0.012,0.016,0.0165,0.0168,0,0,0,0,0,0,0.0145,0.0156,0.0155,0.0167,0.0172,0.0172,0.0177,0.0173,0.0169,0.0166,0.0152,0.0149,0.0152,0.014,0.0138,0.0143,0.0126,0.0126,0.0157,0.0161,0.0165,0.0179,0.0123,0,0,0,0,0,0.0147,0.0159,0.0165,0.0175,0.0179,0.0178,0.018,0.0178,0.0176,0.0174,0.0167,0.0157,0.0152,0.0151,0.0143,0.0146,0.0137,0.0152,0.0156,0.0159,0.0168,0.0162,0.0166,0.0122,0.0122,0.0122,0,0,0.0149,0.0157,0.0163,0.0175,0.0178,0.0195,0.0178,0.0187,0.0198,0.0172,0.0183,0.0169,0.0155,0.016,0.016,0.0152,0.0166,0.0159,0.0162,0.017,0.0163,0.0168,0.0172,0.0123,0.0123,0.0122,0,0,0.0165,0.0167,0.0185,0.0193,0.0204,0.0205,0.021,0.0213,0.0212,0.0217,0.0203,0.0198,0.019,0.0186,0.0182,0.0199,0.0183,0.0195,0.0226,0.0221,0.0225,0.0228,0.0222,0.0224,0.0198,0.0198,0.0198,0,0.0167,0.0193,0.019,0.0212,0.0225,0.0214,0.0238,0.0237,0.0238,0.0248,0.0226,0.0223,0.0204,0.0219,0.022,0.0208,0.0202,0.0213,0.0226,0.0229,0.0232,0.0225,0.0227,0.02,0.02,0.02,0.0199,0,0.0202,0.0221,0.0233,0.026,0.027,0.0288,0.0291,0.0298,0.0292,0.0295,0.0303,0.0273,0.0275,0.0264,0.0244,0.0259,0.0247,0.0231,0.0219,0.0239,0.023,0.0231,0.0203,0.0202,0.0202,0.0201,0,0,0.0214,0.0251,0.0256,0.0282,0.0298,0.0317,0.0333,0.0357,0.0389,0.0365,0.0396,0.0366,0.0351,0.0344,0.0318,0.0307,0.0309,0.0278,0.0277,0.0278,0.0299,0.0293,0.0294,0.0296,0.0296,0.0297,0.0285,0,0.0245,0.0299,0.0305,0.0356,0.0387,0.0386,0.0411,0.0428,0.0436,0.0461,0.0426,0.0439,0.0382,0.0383,0.0362,0.0331,0.0314,0.0313,0.0275,0.0274,0.027,0.0296,0.032,0.0312,0.0287,0.0287,0.0287,0,0.0283,0.0317,0.0371,0.0423,0.0436,0.046,0.0513,0.0536,0.056,0.0566,0.0564,0.0537,0.0517,0.0459,0.041,0.0413,0.0358,0.0322,0.0321,0.0303,0.0271,0.0286,0.0315,0.0278,0.0289,0.0289,0.0288,0,0.0311,0.0366,0.0413,0.043,0.0481,0.0505,0.0534,0.0571,0.0617,0.0637,0.0669,0.0631,0.0622,0.0551,0.0459,0.0438,0.0405,0.0367,0.0309,0.0307,0.0314,0.0313,0.0309,0.0327,0.0327,0.0327,0.0327,0,0.035,0.039,0.0433,0.0462,0.0532,0.0549,0.0629,0.0652,0.0706,0.0774,0.0727,0.076,0.0644,0.0602,0.0502,0.0421,0.0436,0.0325,0.0309,0.0329,0.033,0.0286,0.0249,0.0326,0.0327,0.0327,0.0327,0,0.038,0.0402,0.0469,0.0527,0.0548,0.0603,0.0694,0.0761,0.0796,0.088,0.0886,0.0869,0.0814,0.0699,0.0592,0.0492,0.0376,0.0364,0.0394,0.0382,0.0284,0.0249,0.0217,0.0177,0.0303,0.0303,0.0303,0,0.0404,0.0438,0.0517,0.0566,0.0596,0.0677,0.0741,0.0801,0.0878,0.095,0.0997,0.0964,0.0952,0.0802,0.063,0.0473,0.0391,0.0377,0.0333,0.0296,0.0245,0.022,0.0186,0.0358,0.0358,0.0358,0.0358,0,0.0457,0.0479,0.0536,0.063,0.0704,0.0793,0.0884,0.0955,0.1029,0.1092,0.1155,0.1145,0.1011,0.0871,0.0657,0.0536,0.0357,0.0377,0.0337,0.0291,0.0267,0.0216,0.0344,0.0361,0.0361,0.036,0.036,0.036,0.0499,0.0549,0.0619,0.0706,0.0791,0.0889,0.0959,0.1058,0.1164,0.1243,0.125,0.1242,0.1066,0.0787,0.0639,0.04,0.0371,0.0316,0.0277,0.0256,0.0218,0.0352,0.035,0.0349,0.0349,0.0349,0.0349,0,0.0557,0.0607,0.0692,0.0792,0.0874,0.0911,0.1041,0.1102,0.1207,0.128,0.1318,0.1232,0.1031,0.0799,0.0498,0.0338,0.026,0.0249,0.0226,0.0192,0.0319,0.0324,0.0321,0.0321,0.0321,0.0321,0.0321,0.0321,0.0593,0.0671,0.0704,0.0832,0.0899,0.0995,0.1058,0.1147,0.1215,0.1274,0.1272,0.1268,0.1135,0.0676,0.0373,0.0281,0.0159,0.0141,0.0065,0.0167,0.017,0.0174,0.0171,0.0136,0.0135,-0.0034,-0.0035,-0.0036]}],[{"header":{"parameterUnit":"m.s-1","parameterCategory":2,"la1":30.2991,"la2":30.254,"lo1":-89.0895,"lo2":-89.0444,"dy":0.0017,"dx":0.0017,"nx":28,"ny":28,"refTime":"2025-12-19T09:00:00:Z","depth":"2","parameterNumber":2,"parameterNumberName":"U-component_of_CURRENTS"},"data":[0,0,0,0,0,0,0,0,0,0,0,0,0,0,0,0,0,0,0,0,0,0,0,0,0,0,0,0,0,0,0,0,0,0,0,0,0,0,0,0,0,0,0,0,0,0,0,0,0,0,0,0,0,0,0,0,0,0,0.1852,0.1852,0,0.1853,0.1853,0.1852,0.1853,0.1853,0.1853,0.1853,0.1852,0.1851,0.1851,0,0,0,0,0,0,0,0,0,0,0,0,0,0.1857,0.1857,0.1851,0.1852,0.1852,0.1853,0.1853,0.1852,0.1853,0.1853,0.1853,0.1853,0.1852,0.1851,0.1851,0,0,0,0,0,0,0,0,0,0,0,0,0,0.1855,0.1857,0.1851,0.1853,0.1853,0.1853,0.1853,0.1852,0.1852,0.1853,0.1853,0.1853,0.1852,0.1851,0.1851,0.1846,0,0,0.1851,0.185,0,0,0,0,0,0,0,0,0.1855,0.1854,0.1853,0.1853,0.1853,0.1854,0.1854,0.1851,0.1852,0.1851,0.1853,0.1853,0.1853,0.1853,0.185,0.1846,0.1846,0.185,0.185,0.185,0.185,0,0,0,0,0,0,0,0.1855,0.1854,0.185,0.1853,0.1853,0.1857,0.1856,0.1853,0.185,0.1851,0.1852,0.1854,0.1853,0.1851,0.185,0.1846,0.185,0.185,0.185,0.185,0.1883,0.1884,0,0,0,0,0,0,0.1857,0.1855,0.185,0.1851,0.1856,0.1856,0.1856,0.1852,0.185,0.185,0.1854,0.1854,0.1851,0.1851,0.185,0.188,0.185,0.185,0.185,0.1882,0.1883,0.1884,0,0,0,0,0,0,0.1857,0.1857,0.185,0.1854,0.1854,0.1856,0.1852,0.1852,0.186,0.1852,0.1852,0.1863,0.1851,0.1851,0.1861,0.1879,0.185,0.185,0.1881,0.1882,0.1884,0.1917,0,0,0,0,0,0,0.1857,0.1856,0.186,0.1854,0.1854,0.1858,0.1852,0.1852,0.1861,0.1862,0.186,0.1859,0.1851,0.1862,0.1861,0.1878,0.185,0.188,0.1881,0.1883,0.1915,0.1919,0.1923,0,0,0,0,0,0.1857,0.1859,0.186,0.186,0.1856,0.1858,0.1859,0.186,0.1862,0.1867,0.187,0.186,0.1873,0.1862,0.1861,0.1878,0.1879,0.1881,0.1883,0.1913,0.1918,0.1923,0,0,0,0,0,0,0.186,0.1859,0.186,0.1861,0.1864,0.1859,0.1866,0.1867,0.1872,0.1876,0.1868,0.1868,0.1886,0.1878,0.1866,0.1895,0.1876,0.1878,0.1899,0.1904,0.1909,0.1911,0.1849,0,0,0,0,0,0.1863,0.1867,0.1865,0.1868,0.1871,0.1871,0.1874,0.1876,0.1878,0.1881,0.1881,0.1885,0.1893,0.1895,0.19,0.191,0.1914,0.1923,0.1927,0.1931,0.1934,0.1965,0.1973,0.1892,0.1892,0.1892,0,0,0.1867,0.1866,0.1869,0.187,0.1872,0.1877,0.1873,0.1882,0.189,0.188,0.1894,0.1901,0.1901,0.1917,0.1924,0.1912,0.1956,0.1934,0.1937,0.1938,0.1968,0.1976,0.1983,0.1893,0.1893,0.1893,0,0,0.187,0.1874,0.1878,0.1882,0.189,0.189,0.1896,0.19,0.1907,0.192,0.1922,0.194,0.1944,0.1951,0.1954,0.1986,0.1982,0.199,0.201,0.204,0.2047,0.2053,0.2066,0.2073,0.1989,0.1989,0.1989,0,0.1877,0.1875,0.1881,0.1884,0.1891,0.1898,0.1904,0.1912,0.192,0.1935,0.1931,0.1964,0.1961,0.1988,0.1998,0.1996,0.2007,0.1988,0.2046,0.2052,0.2058,0.207,0.2077,0.1991,0.199,0.199,0.199,0,0.1877,0.1883,0.1887,0.1894,0.1904,0.1911,0.1923,0.194,0.1952,0.1963,0.1999,0.2003,0.2024,0.2028,0.2019,0.2062,0.2055,0.2051,0.2031,0.2068,0.2078,0.2085,0.1993,0.1993,0.1992,0.1992,0,0,0.1874,0.1885,0.1889,0.1892,0.191,0.1914,0.1941,0.1965,0.1988,0.2008,0.204,0.206,0.2074,0.2079,0.208,0.21,0.2144,0.2092,0.2093,0.2102,0.2206,0.2143,0.2144,0.2155,0.2156,0.2157,0.2196,0,0.1873,0.1879,0.189,0.1902,0.1905,0.1929,0.195,0.1979,0.2007,0.2042,0.2068,0.2096,0.209,0.2104,0.2129,0.2144,0.2165,0.2134,0.2171,0.2172,0.211,0.2151,0.1956,0.1969,0.2202,0.2203,0.2204,0,0.1864,0.1871,0.1881,0.1902,0.1908,0.1921,0.1965,0.1988,0.2045,0.2072,0.2119,0.2136,0.2178,0.2162,0.2217,0.22,0.2207,0.2213,0.2215,0.2149,0.2122,0.1971,0.1973,0.2216,0.2215,0.2214,0.2213,0,0.1844,0.1862,0.1869,0.1876,0.1904,0.1923,0.1948,0.2001,0.2034,0.2099,0.2131,0.2183,0.2213,0.2242,0.2257,0.2245,0.2309,0.2292,0.2242,0.2238,0.2074,0.2052,0.2331,0.2331,0.2331,0.2331,0.2331,0,0.1827,0.1835,0.1861,0.1863,0.1883,0.1912,0.1951,0.1989,0.2053,0.2089,0.2147,0.218,0.2237,0.2275,0.2281,0.2286,0.2334,0.2253,0.2249,0.2079,0.2058,0.2271,0.2264,0.2332,0.2332,0.2332,0.2331,0,0.1802,0.1817,0.1827,0.1859,0.187,0.1889,0.1948,0.1977,0.2045,0.2095,0.2117,0.2199,0.2244,0.2285,0.2331,0.231,0.232,0.2307,0.2096,0.2065,0.222,0.2214,0.2255,0.2253,0.2251,0.225,0.2249,0,0.1789,0.1786,0.1818,0.1827,0.1843,0.1877,0.1899,0.1968,0.2,0.2091,0.2107,0.218,0.2201,0.2256,0.2231,0.2233,0.2297,0.2054,0.1991,0.2223,0.2215,0.2211,0.2207,0.1786,0.1781,0.1777,0.1774,0,0.1762,0.1775,0.1785,0.1799,0.1819,0.1838,0.1875,0.1894,0.1965,0.2002,0.2047,0.2074,0.212,0.2029,0.2039,0.2016,0.2038,0.1975,0.2283,0.1837,0.1785,0.1776,0.1787,0.174,0.1743,0.1746,0.1747,0.1749,0.1748,0.1746,0.1754,0.1761,0.178,0.1777,0.1765,0.1797,0.1816,0.1829,0.1916,0.1885,0.1899,0.1808,0.1747,0.1701,0.185,0.1758,0.1769,0.1784,0.1724,0.1672,0.1594,0.1597,0.1599,0.1601,0.1602,0,0.1707,0.1709,0.1713,0.1704,0.1686,0.1723,0.1725,0.1686,0.1655,0.168,0.1688,0.1539,0.146,0.1481,0.1345,0.134,0.1317,0.1289,0.1235,0.1271,0.1303,0.1217,0.0953,0.0951,0.0949,0.0947,0,0,0.1689,0.167,0.166,0.1604,0.1599,0.1544,0.1525,0.1478,0.1461,0.1394,0.1348,0.1417,0.1445,0.1188,0.1145,0.1023,0.1143,0.0981,0.1503,0.1478,0.1507,0.1576,0.1485,0,0,0,0,0]},{"header":{"parameterUnit":"m.s-1","parameterCategory":2,"la1":30.2991,"la2":30.254,"lo1":-89.0895,"lo2":-89.0444,"dy":0.0017,"dx":0.0017,"nx":28,"ny":28,"refTime":"2025-12-19T09:00:00:Z","depth":"2","parameterNumber":3,"parameterNumberName":"V-component_of_CURRENTS"},"data":[0,0,0,0,0,0,0,0,0,0,0,0,0,0,0,0,0,0,0,0,0,0,0,0,0,0,0,0,0,0,0,0,0,0,0,0,0,0,0,0,0,0,0,0,0,0,0,0,0,0,0,0,0,0,0,0,0,0,0.0143,0.0143,0,0.0134,0.0134,0.0134,0.0121,0.0121,0.0121,0.0121,0.0097,0.0096,0.0096,0,0,0,0,0,0,0,0,0,0,0,0,0,0.012,0.0121,0.0143,0.0143,0.0143,0.0134,0.0134,0.0134,0.0121,0.0121,0.0121,0.0121,0.0097,0.0097,0.0096,0,0,0,0,0,0,0,0,0,0,0,0,0,0.0121,0.0121,0.0143,0.0137,0.0136,0.0134,0.0134,0.0134,0.0121,0.0121,0.0121,0.0121,0.0097,0.0097,0.0096,0.0094,0,0,0.0093,0.0093,0,0,0,0,0,0,0,0,0.0121,0.0122,0.0138,0.0137,0.0137,0.013,0.0117,0.012,0.0121,0.0126,0.0121,0.0121,0.0107,0.0106,0.0103,0.0093,0.0092,0.0093,0.0093,0.0092,0.0092,0,0,0,0,0,0,0,0.0121,0.0122,0.0138,0.0138,0.0137,0.0124,0.0124,0.0117,0.0116,0.0125,0.0125,0.0126,0.0107,0.0104,0.0102,0.0091,0.0093,0.0093,0.0092,0.0092,0.0084,0.0084,0,0,0,0,0,0,0.0127,0.0123,0.0139,0.0138,0.013,0.0125,0.0125,0.0131,0.0117,0.0115,0.0126,0.0125,0.0105,0.0103,0.0101,0.0111,0.0092,0.0092,0.0091,0.0083,0.0084,0.0084,0,0,0,0,0,0,0.0127,0.0129,0.0139,0.0131,0.0131,0.0126,0.0133,0.0131,0.0129,0.0117,0.0115,0.0126,0.0105,0.0102,0.0099,0.011,0.0091,0.0091,0.0083,0.0083,0.0084,0.0123,0,0,0,0,0,0,0.0126,0.0129,0.0132,0.0131,0.0132,0.0142,0.0133,0.0131,0.0131,0.013,0.0117,0.0114,0.0105,0.01,0.0098,0.0108,0.009,0.0083,0.0083,0.0084,0.0121,0.0124,0.0127,0,0,0,0,0,0.0125,0.0134,0.0132,0.0134,0.0138,0.0143,0.0142,0.0136,0.0131,0.0133,0.0125,0.0115,0.0102,0.01,0.0097,0.0108,0.0082,0.0083,0.0084,0.012,0.0124,0.0127,0,0,0,0,0,0,0.0123,0.0133,0.0132,0.0142,0.0144,0.0141,0.0143,0.0139,0.0133,0.0131,0.0118,0.0115,0.0116,0.0105,0.0103,0.0106,0.0091,0.0091,0.0119,0.0123,0.0126,0.0136,0.0089,0,0,0,0,0,0.0125,0.0136,0.014,0.0147,0.015,0.0146,0.0146,0.0143,0.014,0.0137,0.013,0.0121,0.0116,0.0114,0.0107,0.0109,0.0095,0.0113,0.0116,0.0119,0.0125,0.0113,0.0116,0.0086,0.0086,0.0086,0,0,0.0126,0.0133,0.0138,0.0148,0.0148,0.016,0.0146,0.015,0.0159,0.0136,0.0144,0.0131,0.0119,0.0122,0.0121,0.0115,0.0119,0.0119,0.0122,0.0127,0.0114,0.0117,0.0119,0.0086,0.0086,0.0086,0,0,0.0137,0.0141,0.0154,0.016,0.0166,0.0167,0.0171,0.0171,0.017,0.0173,0.0161,0.0155,0.0147,0.0144,0.0139,0.0154,0.0135,0.0151,0.0177,0.0166,0.0168,0.017,0.0155,0.0155,0.0154,0.0154,0.0154,0,0.0136,0.0158,0.0157,0.0173,0.0184,0.0175,0.0193,0.0191,0.019,0.0197,0.018,0.0174,0.0159,0.0169,0.0173,0.0162,0.0151,0.0166,0.017,0.0172,0.0173,0.0157,0.0157,0.0156,0.0155,0.0155,0.0155,0,0.0161,0.0177,0.0186,0.0209,0.0217,0.023,0.0233,0.0238,0.0234,0.0236,0.0239,0.0215,0.0215,0.0207,0.0193,0.0201,0.0187,0.0175,0.0163,0.0179,0.016,0.016,0.0158,0.0158,0.0157,0.0157,0,0,0.0166,0.0198,0.0202,0.0222,0.0238,0.0251,0.0267,0.0285,0.0307,0.0289,0.0309,0.0289,0.0276,0.027,0.025,0.0237,0.023,0.0213,0.0211,0.0201,0.0203,0.0193,0.0191,0.0219,0.0219,0.0219,0.0185,0,0.0187,0.0228,0.0237,0.0276,0.03,0.0302,0.0324,0.0337,0.0343,0.0359,0.0331,0.0339,0.0301,0.03,0.0281,0.0248,0.023,0.024,0.0186,0.0184,0.0176,0.019,0.0209,0.0181,0.0184,0.0184,0.0184,0,0.0211,0.0239,0.0281,0.0323,0.0334,0.0354,0.0396,0.0415,0.0432,0.0436,0.0433,0.0411,0.0393,0.0352,0.03,0.0309,0.026,0.0224,0.0222,0.02,0.0173,0.0165,0.0179,0.0183,0.0183,0.0183,0.0183,0,0.0226,0.0271,0.0308,0.0322,0.0366,0.0385,0.041,0.044,0.0474,0.0487,0.0506,0.0476,0.0466,0.0402,0.0324,0.0314,0.0261,0.0237,0.0179,0.0177,0.0177,0.0175,0.0194,0.0194,0.0194,0.0194,0.0194,0,0.0252,0.0282,0.032,0.0343,0.0395,0.0413,0.0473,0.0493,0.0534,0.0582,0.0547,0.0569,0.0478,0.0434,0.035,0.0268,0.0279,0.0189,0.0172,0.019,0.019,0.0178,0.0176,0.0193,0.0193,0.0194,0.0194,0,0.0266,0.0288,0.0337,0.0385,0.0405,0.0444,0.0518,0.0566,0.0595,0.0652,0.0656,0.0645,0.0592,0.0493,0.0396,0.0312,0.0227,0.019,0.0216,0.0202,0.0142,0.0143,0.0126,0.0125,0.0125,0.0124,0.0124,0,0.0278,0.0303,0.0366,0.0402,0.0427,0.0489,0.0539,0.0592,0.0649,0.0701,0.0731,0.07,0.0688,0.0546,0.0405,0.0264,0.0233,0.0173,0.0153,0.0152,0.0136,0.0138,0.014,0.0164,0.0164,0.0164,0.0164,0,0.0302,0.032,0.0361,0.0433,0.0489,0.056,0.0632,0.0686,0.0748,0.0796,0.0846,0.0839,0.0719,0.0596,0.0406,0.0305,0.0197,0.0169,0.0169,0.0179,0.0185,0.0171,0.0171,0.0164,0.0164,0.0164,0.0164,0.0164,0.0316,0.0346,0.0397,0.0464,0.0533,0.0614,0.0672,0.0754,0.0841,0.0908,0.0915,0.0902,0.077,0.0534,0.0377,0.0205,0.0212,0.0134,0.0135,0.0136,0.0147,0.0152,0.0126,0.0126,0.0126,0.0126,0.0126,0,0.0333,0.0366,0.0427,0.0504,0.0573,0.0614,0.0724,0.0779,0.0872,0.0938,0.0978,0.0836,0.0717,0.0551,0.0311,0.0166,0.015,0.0102,0.0122,0.0124,0.0125,0.0136,0.0112,0.0111,0.0111,0.011,0,0,0.0341,0.0391,0.0418,0.0515,0.0576,0.0665,0.0726,0.081,0.0876,0.0931,0.0935,0.0942,0.0759,0.0574,0.0392,0.0254,0.0213,0.0216,0.0245,0.0293,0.0295,0.0165,0.0187,0,0,0,0,0]}],[{"header":{"parameterUnit":"m.s-1","parameterCategory":2,"la1":30.2991,"la2":30.254,"lo1":-89.0895,"lo2":-89.0444,"dy":0.0017,"dx":0.0017,"nx":28,"ny":28,"refTime":"2025-12-19T09:00:00:Z","depth":"4","parameterNumber":2,"parameterNumberName":"U-component_of_CURRENTS"},"data":[0,0,0,0,0,0,0,0,0,0,0,0,0,0,0,0,0,0,0,0,0,0,0,0,0,0,0,0,0,0,0,0,0,0,0,0,0,0,0,0,0,0,0,0,0,0,0,0,0,0,0,0,0,0,0,0,0,0,0.1109,0.111,0,0.1157,0.1158,0.1158,0.12,0.12,0.1201,0.1201,0.1264,0.1265,0.1266,0,0,0,0,0,0,0,0,0,0,0,0,0,0.1065,0.1065,0.1109,0.111,0.1111,0.1157,0.1158,0.1158,0.12,0.12,0.1201,0.1202,0.1263,0.1265,0.1266,0,0,0,0,0,0,0,0,0,0,0,0,0,0.1095,0.1066,0.1109,0.1137,0.1141,0.1157,0.1158,0.1158,0.12,0.12,0.1201,0.1202,0.1263,0.1265,0.1266,0.1261,0,0,0.1272,0.1272,0,0,0,0,0,0,0,0,0.1093,0.1096,0.1133,0.1136,0.1139,0.1174,0.1165,0.1194,0.1199,0.1176,0.1201,0.1202,0.1235,0.1239,0.1245,0.1263,0.1266,0.1272,0.1273,0.1274,0.1274,0,0,0,0,0,0,0,0.1091,0.1095,0.1127,0.1133,0.1137,0.1152,0.1157,0.1171,0.12,0.1178,0.1182,0.1188,0.1237,0.1243,0.1247,0.1267,0.1272,0.1273,0.1274,0.1275,0.137,0.1372,0,0,0,0,0,0,0.1085,0.1092,0.1126,0.1129,0.1119,0.1152,0.1157,0.1161,0.12,0.1207,0.1187,0.119,0.124,0.1245,0.1249,0.1317,0.1274,0.1275,0.1276,0.1369,0.1371,0.1372,0,0,0,0,0,0,0.1084,0.1087,0.1124,0.1113,0.1118,0.1152,0.1156,0.1162,0.1194,0.1207,0.1214,0.1216,0.1241,0.1247,0.1288,0.1317,0.1276,0.1278,0.1367,0.1369,0.1371,0.1407,0,0,0,0,0,0,0.1082,0.1087,0.11,0.1112,0.1119,0.115,0.1155,0.1162,0.1195,0.12,0.1233,0.1238,0.1242,0.1285,0.129,0.1319,0.1279,0.1365,0.1368,0.1371,0.1404,0.1411,0.1416,0,0,0,0,0,0.1081,0.1091,0.1101,0.1106,0.1132,0.1151,0.1156,0.1182,0.1196,0.1214,0.1241,0.1239,0.1306,0.1288,0.1292,0.1323,0.1364,0.1367,0.137,0.1402,0.1409,0.1416,0,0,0,0,0,0,0.108,0.1097,0.1107,0.1124,0.1144,0.1159,0.1181,0.1195,0.1229,0.1243,0.1254,0.1261,0.1309,0.1312,0.1291,0.136,0.1336,0.1341,0.1359,0.1366,0.1372,0.1368,0.128,0,0,0,0,0,0.1084,0.11,0.1116,0.1133,0.1145,0.1168,0.1184,0.1201,0.1226,0.1243,0.1267,0.1295,0.1322,0.1341,0.1362,0.1396,0.1396,0.1421,0.1427,0.1432,0.1434,0.1467,0.1475,0.1383,0.1383,0.1383,0,0,0.1088,0.1102,0.1111,0.1135,0.1155,0.1174,0.118,0.1212,0.1236,0.1243,0.1294,0.1317,0.1336,0.1378,0.14,0.1387,0.1458,0.1436,0.144,0.1439,0.1471,0.148,0.1488,0.1385,0.1385,0.1385,0,0,0.1097,0.1118,0.1132,0.1151,0.1184,0.1197,0.1212,0.1242,0.1268,0.1311,0.1327,0.1368,0.1408,0.1428,0.1441,0.1492,0.1488,0.1506,0.1533,0.1565,0.1573,0.1579,0.1583,0.159,0.1509,0.1509,0.1509,0,0.1105,0.1121,0.1141,0.116,0.118,0.121,0.1231,0.1258,0.1301,0.1329,0.1336,0.1414,0.143,0.1479,0.1499,0.1505,0.1514,0.1502,0.1572,0.1579,0.1585,0.1587,0.1594,0.1511,0.1511,0.151,0.151,0,0.1115,0.114,0.1153,0.1185,0.121,0.1236,0.1269,0.1308,0.1344,0.1372,0.144,0.1466,0.1513,0.1527,0.1528,0.1587,0.1575,0.1574,0.155,0.1596,0.1596,0.1602,0.1514,0.1513,0.1513,0.1512,0,0,0.1101,0.115,0.1158,0.1179,0.1228,0.1246,0.1296,0.1346,0.1387,0.1439,0.149,0.1543,0.157,0.1587,0.1601,0.1628,0.1675,0.1623,0.1624,0.162,0.1734,0.1607,0.1601,0.1692,0.1693,0.1694,0.1713,0,0.1107,0.1141,0.1169,0.1211,0.1231,0.1278,0.1319,0.1373,0.1425,0.1483,0.1529,0.1583,0.1589,0.1619,0.1651,0.1673,0.1696,0.1669,0.1697,0.1697,0.1572,0.1606,0.17,0.1717,0.1719,0.172,0.1721,0,0.1104,0.1129,0.1168,0.1224,0.1239,0.1275,0.1352,0.1395,0.1479,0.1522,0.159,0.1626,0.1686,0.1677,0.1741,0.1728,0.1737,0.1743,0.1745,0.1616,0.1582,0.1666,0.1732,0.1731,0.173,0.173,0.1729,0,0.1073,0.1128,0.1161,0.118,0.1248,0.1287,0.1332,0.1415,0.1462,0.1556,0.1598,0.1673,0.1716,0.1751,0.1774,0.1769,0.1824,0.1816,0.1706,0.1697,0.179,0.1783,0.1856,0.1856,0.1856,0.1856,0.1856,0,0.1055,0.1085,0.1154,0.1172,0.1222,0.1278,0.1346,0.1403,0.149,0.1541,0.1622,0.1661,0.174,0.1779,0.1791,0.1762,0.1843,0.171,0.1696,0.1803,0.1798,0.1794,0.1786,0.1857,0.1856,0.1856,0.1856,0,0.1015,0.106,0.1102,0.118,0.1209,0.1249,0.1348,0.139,0.148,0.1547,0.1579,0.1673,0.1714,0.1765,0.1813,0.1765,0.1759,0.1729,0.1829,0.1821,0.1604,0.1599,0.1601,0.1597,0.1593,0.159,0.1588,0,0.0996,0.1014,0.1101,0.1129,0.1171,0.1239,0.1281,0.1378,0.1419,0.1534,0.1551,0.1629,0.1676,0.1641,0.1702,0.1702,0.1686,0.1663,0.1638,0.1592,0.158,0.1581,0.158,0.1582,0.1581,0.158,0.1579,0,0.0961,0.1003,0.1039,0.1094,0.1144,0.1188,0.1255,0.1273,0.1373,0.1466,0.1485,0.1501,0.1537,0.1562,0.1571,0.1573,0.1667,0.1625,0.1632,0.1609,0.1569,0.1561,0.1565,0.1567,0.1568,0.157,0.157,0,0.0942,0.0958,0.101,0.1049,0.1103,0.1114,0.1159,0.1194,0.1242,0.136,0.1361,0.144,0.1521,0.1495,0.1507,0.1492,0.1469,0.1416,0.1434,0.1449,0.1389,0.1315,0.1222,0,0,0,0,0,0.0918,0.0925,0.0958,0.0987,0.1031,0.1061,0.1128,0.1171,0.1261,0.1239,0.1296,0.132,0.1327,0.1371,0.1325,0.1436,0.1476,0.1375,0.1425,0.1497,0.1512,0.1455,0,0,0,0,0,0,0.09,0.0932,0.0936,0.0922,0.0929,0.0963,0.1002,0.1061,0.1053,0.1151,0.1167,0.1235,0.1271,0.1344,0.1302,0.1312,0.1313,0.1426,0.1422,0.1489,0.1502,0.1514,0.146,0,0,0,0,0]},{"header":{"parameterUnit":"m.s-1","parameterCategory":2,"la1":30.2991,"la2":30.254,"lo1":-89.0895,"lo2":-89.0444,"dy":0.0017,"dx":0.0017,"nx":28,"ny":28,"refTime":"2025-12-19T09:00:00:Z","depth":"4","parameterNumber":3,"parameterNumberName":"V-component_of_CURRENTS"},"data":[0,0,0,0,0,0,0,0,0,0,0,0,0,0,0,0,0,0,0,0,0,0,0,0,0,0,0,0,0,0,0,0,0,0,0,0,0,0,0,0,0,0,0,0,0,0,0,0,0,0,0,0,0,0,0,0,0,0,0.015,0.015,0,0.0142,0.0142,0.0142,0.0135,0.0135,0.0135,0.0135,0.0118,0.0117,0.0117,0,0,0,0,0,0,0,0,0,0,0,0,0,0.0134,0.0134,0.015,0.015,0.015,0.0142,0.0142,0.0142,0.0135,0.0135,0.0135,0.0135,0.0118,0.0117,0.0117,0,0,0,0,0,0,0,0,0,0,0,0,0,0.0134,0.0134,0.015,0.0146,0.0146,0.0142,0.0142,0.0142,0.0135,0.0135,0.0135,0.0135,0.0118,0.0118,0.0117,0.0113,0,0,0.0115,0.0115,0,0,0,0,0,0,0,0,0.0134,0.0135,0.0147,0.0146,0.0146,0.014,0.013,0.0132,0.0135,0.0138,0.0135,0.0135,0.0125,0.0124,0.0121,0.0112,0.0112,0.0115,0.0114,0.0114,0.0114,0,0,0,0,0,0,0,0.0134,0.0135,0.0146,0.0147,0.0146,0.0136,0.0136,0.013,0.0131,0.0138,0.0138,0.0138,0.0125,0.0122,0.0121,0.0111,0.0115,0.0114,0.0114,0.0114,0.0106,0.0106,0,0,0,0,0,0,0.0138,0.0135,0.0146,0.0146,0.0141,0.0137,0.0137,0.0142,0.0131,0.013,0.0138,0.0138,0.0123,0.0122,0.012,0.0129,0.0114,0.0113,0.0113,0.0106,0.0106,0.0107,0,0,0,0,0,0,0.0138,0.0139,0.0147,0.0141,0.0141,0.0137,0.0142,0.0141,0.0141,0.0132,0.013,0.0139,0.0123,0.0121,0.012,0.0128,0.0113,0.0113,0.0106,0.0106,0.0106,0.0138,0,0,0,0,0,0,0.0137,0.0139,0.0143,0.0141,0.0141,0.0149,0.0142,0.0141,0.0142,0.0141,0.0132,0.013,0.0123,0.0121,0.0119,0.0127,0.0112,0.0106,0.0106,0.0106,0.0137,0.014,0.0142,0,0,0,0,0,0.0137,0.0143,0.0144,0.0145,0.0147,0.0149,0.0148,0.0144,0.0142,0.0144,0.0139,0.0131,0.0122,0.0121,0.0119,0.0126,0.0105,0.0106,0.0106,0.0136,0.0139,0.0142,0,0,0,0,0,0,0.0137,0.0143,0.0143,0.0151,0.0152,0.0148,0.015,0.0147,0.0144,0.0144,0.0134,0.0132,0.0133,0.0124,0.0123,0.0125,0.0112,0.0112,0.0136,0.0138,0.0141,0.0146,0.0111,0,0,0,0,0,0.0139,0.0147,0.0149,0.0155,0.0157,0.0154,0.0153,0.0151,0.0149,0.0148,0.0143,0.0137,0.0133,0.0132,0.0125,0.0127,0.0111,0.013,0.0132,0.0135,0.0137,0.0121,0.0122,0.0108,0.0108,0.0108,0,0,0.014,0.0145,0.015,0.0156,0.0156,0.0164,0.0153,0.0156,0.0163,0.0146,0.0154,0.0145,0.0135,0.0137,0.0137,0.0132,0.013,0.0135,0.0137,0.0138,0.0121,0.0122,0.0124,0.0108,0.0108,0.0108,0,0,0.0148,0.0152,0.0162,0.0166,0.0169,0.017,0.0172,0.0172,0.0172,0.0176,0.0167,0.0163,0.0158,0.0154,0.0151,0.0162,0.0142,0.016,0.0179,0.0164,0.0165,0.0165,0.0145,0.0144,0.0163,0.0163,0.0163,0,0.0148,0.0163,0.0163,0.0174,0.0181,0.0176,0.0187,0.0187,0.0187,0.0191,0.0182,0.0176,0.0166,0.0171,0.0175,0.0168,0.0154,0.017,0.0167,0.0167,0.0168,0.0147,0.0145,0.0165,0.0165,0.0164,0.0164,0,0.0163,0.0176,0.0182,0.0198,0.0204,0.0213,0.0216,0.0221,0.0219,0.0221,0.0222,0.0206,0.0204,0.0199,0.0191,0.0192,0.0179,0.0171,0.0161,0.0171,0.0148,0.0146,0.0167,0.0166,0.0166,0.0166,0,0,0.0164,0.0189,0.0192,0.0205,0.0219,0.0226,0.024,0.0252,0.0266,0.0256,0.0266,0.0255,0.0246,0.0241,0.0228,0.0214,0.0201,0.0197,0.0195,0.0179,0.0163,0.0151,0.0147,0.0193,0.0193,0.0193,0.0145,0,0.0177,0.0204,0.0213,0.024,0.0255,0.026,0.0277,0.0286,0.029,0.0298,0.0279,0.0282,0.0263,0.0261,0.0245,0.0214,0.0196,0.0214,0.0153,0.0151,0.0141,0.0144,0.0192,0.0143,0.0143,0.0142,0.0142,0,0.0189,0.0208,0.0237,0.0268,0.0275,0.0291,0.0319,0.0333,0.0342,0.0344,0.034,0.0325,0.0309,0.0285,0.0236,0.025,0.021,0.0179,0.0177,0.0153,0.0135,0.013,0.0137,0.0137,0.0138,0.0138,0.0138,0,0.0193,0.0226,0.0251,0.0262,0.0294,0.0309,0.0328,0.0349,0.0368,0.0374,0.0381,0.0359,0.0347,0.0297,0.0237,0.0237,0.0173,0.0164,0.0114,0.0112,0.0122,0.0122,0.0123,0.0123,0.0123,0.0123,0.0123,0,0.0204,0.0225,0.0257,0.0272,0.0306,0.0324,0.0362,0.0376,0.04,0.0425,0.0406,0.0411,0.0349,0.0306,0.0246,0.0173,0.0179,0.0116,0.01,0.0136,0.0138,0.012,0.012,0.0121,0.0122,0.0122,0.0123,0,0.0202,0.0224,0.0255,0.0293,0.0309,0.0333,0.0385,0.0412,0.0433,0.046,0.0462,0.0449,0.0399,0.0327,0.0246,0.0188,0.0116,0.0086,0.0128,0.0115,0.0062,0.0064,0.0028,0.0027,0.0026,0.0026,0.0025,0,0.0202,0.0218,0.0266,0.0289,0.0309,0.0351,0.0384,0.0423,0.0455,0.0483,0.0494,0.0463,0.0438,0.0319,0.0241,0.0122,0.0102,0.0056,0.006,0.0064,0.0053,0.0056,0.0059,0.0024,0.0024,0.0024,0.0024,0,0.0201,0.0218,0.0245,0.0294,0.0332,0.0377,0.0426,0.0451,0.0496,0.0511,0.0521,0.0468,0.0411,0.0324,0.0229,0.0143,0.0082,0.0048,0.0049,0.0053,0.006,0.0049,0.0053,0.0022,0.0022,0.0022,0.0022,0,0.0198,0.0214,0.0252,0.0296,0.0343,0.039,0.0419,0.0461,0.0496,0.0529,0.0531,0.0477,0.0454,0.0335,0.0249,0.0163,0.0139,0.01,0.0097,0.0099,0.0132,0.0152,0.013,0,0,0,0,0,0.0195,0.0216,0.0253,0.0303,0.0351,0.0383,0.0443,0.0471,0.0511,0.052,0.053,0.048,0.0371,0.0334,0.0246,0.0224,0.0112,0.0114,0.0063,0.0009,0.0012,0.0037,0,0,0,0,0,0,0.0194,0.0226,0.0247,0.0303,0.0338,0.0395,0.0435,0.0464,0.0478,0.0504,0.0456,0.0441,0.0342,0.0419,0.0239,0.0215,0.0166,0.0072,0.0069,0.0008,0.001,0.0012,0.0039,0,0,0,0,0]}]]